Location: Central Coast
(33.3208°S, 151.2336°E)
Time: 23:03:08
(UTC+11:00)

Envisat - Pass Details

Date: 15 October 2017
Orbit: 764 x 766 km, 98.2° (Epoch: 22 October)

Event Time Altitude Azimuth Distance (km) Brightness Sun altitude
Rises 22:31:38 0° 186° (S) 3,266 6.9 -38.0°
Reaches altitude 10° 22:34:29 10° 201° (SSW) 2,332 6.1 -38.4°
Enters shadow 22:37:56 20° 243° (WSW) 1,711 5.3 -38.8°
